Find Starlink 31734

NORAD ID: 59534 Int'l Des: 2024-074 Owner: SPXS Country: US Constellation: starlink operational
LEOCIRCULAR

实时位置

正在加载3D地球...

关于 Starlink 31734

正在加载描述...

即将过境

Passes for default location (London). Set your location on the main map for personalized predictions.

高度历史

Loading altitude history...

两行轨道根数

1 59534U 24074A 26123.76712514 .00001331 00000-0 57878-4 0 9997
2 59534 43.0054 21.5822 0001377 277.0424 83.0271 15.27586355114563
Epoch: May 3, 2026 • Age: 9 hours

当前状态

高度 493.5 km
速度 7.62 km/s
星下点 -38.32°S, 46.82°E
发射日期 Apr 18, 2024
运行时间 2 years
类型 internet

技术详情

分类 Payload
质量 730.00 kg
干质量 700.00 kg
总质量 730.00 kg
长度 0.30 m
直径 4.10 m
跨度 29.00 m
形状 Box + pan
制造商 SPXS
平台类型 Starlink V2M
阶段状态 In Orbit
所有者/国家 SPXS/US

Most Searched